This demonstration page uses our WeatherBlox Daily Observations layout. Learn more.

39.92423, -83.80882

Hourly Observations for December 30, 2017

Temp ( °F °C ) Dew Point ( °F °C ) Humidity (%) Winds ( mph kmh ) Pressure ( in mb ) Visibility ( mi km ) Precip ( " mm )
12:56 am 00:56 Cloudy with Light Snow 16 -8.9 13 -10.6 88 88 Calm 30.17 1022 2.5 4.02335 0.01 0.254
1:07 am 01:07 Cloudy with Light Snow 16 -9 12 -11 86 86 Calm 30.18 1022 3 4.82802 0 0.0254
1:56 am 01:56 Cloudy with Light Snow 16 -8.9 13 -10.6 88 88 WSW 6 9 30.16 1021 5 8.0467 0 0.0254
2:56 am 02:56 Cloudy with Light Snow 15 -9.4 13 -10.6 91 91 W 5 7 30.16 1022 6 9.65604 0 0.0254
3:17 am 03:17 Cloudy with Light Snow 16 -9 12 -11 86 86 W 6 9 30.21 1023 6 9.65604 0 0.0254
3:56 am 03:56 Cloudy with Light Snow 16 -8.9 13 -10.6 88 88 W 8 13 30.16 1021 6 9.65604 0 0.0254
4:48 am 04:48 Cloudy with Light Snow 16 -9 12 -11 86 86 WNW 8 13 30.21 1023 5 8.0467 0 0.0254
4:56 am 04:56 Cloudy with Light Snow 15 -9.4 13 -10.6 91 91 NW 8 13 30.16 1022 5 8.0467 0 0.0254
5:56 am 05:56 Cloudy with Light Snow 14 -10 12 -11.1 92 92 WNW 9 15 30.16 1022 7 11.26538 0 0.0254
6:56 am 06:56 Cloudy with Light Snow 14 -10 11 -11.7 88 88 W 8 13 30.17 1022 7 11.26538 0 0.0254
7:33 am 07:33 Cloudy with Light Snow 14 -10 10 -12 85 85 W 8 13 30.24 1024 9 14.48406 0 0.0254
7:56 am 07:56 Cloudy with Light Snow 14 -10 11 -11.7 88 88 W 10 17 30.15 1021 8 12.87472 0 0.0254
8:56 am 08:56 Cloudy with Light Snow 14 -10 11 -11.7 88 88 W 12 19 30.17 1022 9 14.48406 0 0.0254
9:56 am 09:56 Cloudy with Light Snow 16 -8.9 11 -11.7 80 80 W 13 20 30.19 1022 9 14.48406 0 0.0254
10:51 am 10:51 Cloudy 18 -8 10 -12 73 73 W 16 26 30.24 1024 10 16.0934 0 0.0254
10:56 am 10:56 Cloudy 17 -8.3 11 -11.7 77 77 W 14 22 30.2 1023 10 16.0934 0 0.0254
11:56 am 11:56 Cloudy with Light Snow 18 -7.8 11 -11.7 74 74 WNW 16 26 30.19 1022 9 14.48406 0 0.0254
12:56 pm 12:56 Windy with Snow Likely 17 -8.3 10 -12.2 74 74 WNW 20 31 30.18 1022 9 14.48406 0 0.0254
1:34 pm 13:34 Cloudy with Light Snow 16 -9 10 -12 79 79 NW 18 30 30.21 1023 2 3.21868 0 0.0254
1:56 pm 13:56 Cloudy with Light Snow 16 -8.9 9 -12.8 74 74 WNW 18 30 30.19 1022 8 12.87472 0 0.0254
2:14 pm 14:14 Windy with Snow Likely 16 -9 9 -13 73 73 WNW 20 31 30.21 1023 1.75 2.816345 0 0.0254
2:23 pm 14:23 Windy with Snow Likely 16 -9 9 -13 73 73 NW 20 31 30.21 1023 3 4.82802 0 0.0254
2:56 pm 14:56 Mostly Cloudy with Scattered Snow Showers 14 -10 5 -15 67 67 WNW 20 31 30.21 1023 9 14.48406 0 0.0254
3:14 pm 15:14 Partly Cloudy 12 -11 3 -16 67 67 WNW 18 30 30.27 1025 10 16.0934 0 0.0254
3:56 pm 15:56 Mostly Cloudy with Scattered Snow Showers 13 -10.6 5 -15 70 70 WNW 21 33 30.24 1024 2.5 4.02335 0 0.0254
4:07 pm 16:07 Mostly Cloudy with Scattered Snow Showers 12 -11 3 -16 67 67 WNW 18 30 30.3 1026 7 11.26538 0 0.0254
4:47 pm 16:47 Mostly Cloudy 10 -12 1 -17 67 67 WNW 16 26 30.33 1027 10 16.0934 0 0.0254
4:56 pm 16:56 Mostly Cloudy 10 -12.2 2 -16.7 69 69 WNW 17 28 30.28 1025 10 16.0934 0 0.0254
5:28 pm 17:28 Cloudy with Light Snow 10 -12 1 -17 67 67 NW 13 20 30.36 1028 9 14.48406 0 0.0254
5:47 pm 17:47 Mostly Cloudy 9 -13 1 -17 72 72 NW 13 20 30.36 1028 10 16.0934 0 0.0254
5:56 pm 17:56 Mostly Cloudy 8 -13.3 0 -17.8 69 69 WNW 9 15 30.32 1027 10 16.0934 0 0.0254
6:56 pm 18:56 Clear 4 -15.6 -2 -18.9 76 76 W 9 15 30.35 1028 10 16.0934 0 0
7:56 pm 19:56 Clear 1 -17.2 -3 -19.4 83 83 W 9 15 30.37 1029 10 16.0934 0 0
8:56 pm 20:56 Clear -1 -18.3 -5 -20.6 82 82 W 8 13 30.4 1030 10 16.0934 0 0
9:56 pm 21:56 Clear -2 -18.9 -6 -21.1 83 83 W 10 17 30.41 1030 10 16.0934 0 0
10:56 pm 22:56 Clear 0 -17.8 -4 -20 83 83 WNW 13 20 30.42 1030 10 16.0934 0 0
11:56 pm 23:56 Clear 1 -17.2 -4 -20 79 79 WNW 8 13 30.43 1031 10 16.0934 0 0

Powered by AerisWeather